Time,TemperatureF,DewpointF,PressureIn,WindDirection,WindDirectionDegrees,WindSpeedMPH,WindSpeedGustMPH,Humidity,HourlyPrecipIn,Conditions,Clouds,dailyrainin,SoftwareType,DateUTC
2015-07-06 00:03:00,79.8,51.9,29.98,SSE,164,0.0,2.0,38,0.00,,,0.00,WeatherCatV2.10B1306,2015-07-06 05:03:00,
2015-07-06 00:08:00,79.7,51.8,29.98,ESE,105,4.0,8.0,38,0.00,,,0.00,WeatherCatV2.10B1306,2015-07-06 05:08:00,
2015-07-06 00:13:00,79.6,51.0,29.98,East,87,0.0,6.0,37,0.00,,,0.00,WeatherCatV2.10B1306,2015-07-06 05:13:00,
2015-07-06 00:18:00,79.6,51.0,29.98,East,98,0.0,11.0,37,0.00,,,0.00,WeatherCatV2.10B1306,2015-07-06 05:18:00,
2015-07-06 00:23:00,79.5,50.2,29.98,SSE,167,0.0,7.0,36,0.00,,,0.00,WeatherCatV2.10B1306,2015-07-06 05:23:00,
2015-07-06 00:28:00,79.4,50.1,29.98,East,82,0.0,1.0,36,0.00,,,0.00,WeatherCatV2.10B1306,2015-07-06 05:28:00,
2015-07-06 00:33:00,79.4,49.3,29.98,SSE,166,0.0,3.0,35,0.00,,,0.00,WeatherCatV2.10B1306,2015-07-06 05:33:00,
2015-07-06 00:38:00,79.3,49.2,29.98,ESE,114,0.0,3.0,35,0.00,,,0.00,WeatherCatV2.10B1306,2015-07-06 05:38:00,
2015-07-06 00:43:00,79.3,48.5,29.98,SE,139,4.0,6.0,34,0.00,,,0.00,WeatherCatV2.10B1306,2015-07-06 05:43:00,
2015-07-06 00:48:00,79.2,48.4,29.98,SE,126,0.0,0.0,34,0.00,,,0.00,WeatherCatV2.10B1306,2015-07-06 05:48:00,
2015-07-06 00:53:00,79.2,47.6,29.98,ESE,119,0.0,2.0,33,0.00,,,0.00,WeatherCatV2.10B1306,2015-07-06 05:53:00,
2015-07-06 00:58:00,79.2,47.6,29.98,ESE,108,0.0,7.0,33,0.00,,,0.00,WeatherCatV2.10B1306,2015-07-06 05:58:00,
2015-07-06 01:03:00,79.1,47.5,29.98,SE,134,1.0,6.0,33,0.00,,,0.00,WeatherCatV2.10B1306,2015-07-06 06:03:00,
2015-07-06 01:08:00,79.1,46.7,29.98,SE,133,0.0,5.0,32,0.00,,,0.00,WeatherCatV2.10B1306,2015-07-06 06:08:00,
2015-07-06 01:13:00,79.1,46.7,29.98,ESE,117,0.0,1.0,32,0.00,,,0.00,WeatherCatV2.10B1306,2015-07-06 06:13:00,
2015-07-06 01:18:00,79.1,46.7,29.98,SE,135,0.0,6.0,32,0.00,,,0.00,WeatherCatV2.10B1306,2015-07-06 06:18:00,
2015-07-06 01:23:00,79.0,45.8,29.98,ESE,113,0.0,4.0,31,0.00,,,0.00,WeatherCatV2.10B1306,2015-07-06 06:23:00,
2015-07-06 01:28:00,79.0,45.8,29.98,ESE,112,0.0,6.0,31,0.00,,,0.00,WeatherCatV2.10B1306,2015-07-06 06:28:00,
2015-07-06 01:33:00,78.9,45.7,29.98,SE,130,0.0,4.0,31,0.00,,,0.00,WeatherCatV2.10B1306,2015-07-06 06:33:00,
2015-07-06 01:38:00,78.9,45.7,29.98,SSE,164,5.0,8.0,31,0.00,,,0.00,WeatherCatV2.10B1306,2015-07-06 06:38:00,
2015-07-06 01:43:00,78.9,45.7,29.98,SE,140,0.0,6.0,31,0.00,,,0.00,WeatherCatV2.10B1306,2015-07-06 06:43:00,
2015-07-06 01:48:00,78.8,44.7,29.98,SSE,167,0.0,11.0,30,0.00,,,0.00,WeatherCatV2.10B1306,2015-07-06 06:48:00,
2015-07-06 01:53:00,78.8,44.7,29.98,SE,136,0.0,2.0,30,0.00,,,0.00,WeatherCatV2.10B1306,2015-07-06 06:53:00,
2015-07-06 01:58:00,78.8,44.7,29.98,SE,128,0.0,9.0,30,0.00,,,0.00,WeatherCatV2.10B1306,2015-07-06 06:58:00,
2015-07-06 02:03:00,78.7,44.6,29.98,ESE,119,0.0,6.0,30,0.00,,,0.00,WeatherCatV2.10B1306,2015-07-06 07:03:00,
2015-07-06 02:08:00,78.7,44.6,29.97,SSE,161,0.0,10.0,30,0.00,,,0.00,WeatherCatV2.10B1306,2015-07-06 07:08:00,
2015-07-06 02:13:00,78.7,44.6,29.97,ESE,107,3.0,3.0,30,0.00,,,0.00,WeatherCatV2.10B1306,2015-07-06 07:13:00,
2015-07-06 02:18:00,78.7,44.6,29.97,SE,136,0.0,2.0,30,0.00,,,0.00,WeatherCatV2.10B1306,2015-07-06 07:18:00,
2015-07-06 02:23:00,78.7,44.6,29.97,SSE,152,1.0,5.0,30,0.00,,,0.00,WeatherCatV2.10B1306,2015-07-06 07:23:00,
2015-07-06 02:28:00,78.7,44.6,29.97,SSE,167,0.0,7.0,30,0.00,,,0.00,WeatherCatV2.10B1306,2015-07-06 07:28:00,
2015-07-06 02:33:00,78.7,44.6,29.97,East,99,6.0,7.0,30,0.00,,,0.00,WeatherCatV2.10B1306,2015-07-06 07:33:00,
2015-07-06 02:38:00,78.6,44.5,29.97,SSE,153,2.0,4.0,30,0.00,,,0.00,WeatherCatV2.10B1306,2015-07-06 07:38:00,
2015-07-06 02:43:00,78.6,44.5,29.97,East,101,0.0,10.0,30,0.00,,,0.00,WeatherCatV2.10B1306,2015-07-06 07:43:00,
2015-07-06 02:48:00,78.6,44.5,29.97,SE,146,3.0,4.0,30,0.00,,,0.00,WeatherCatV2.10B1306,2015-07-06 07:48:00,
2015-07-06 02:53:00,78.6,44.5,29.97,SE,146,0.0,7.0,30,0.00,,,0.00,WeatherCatV2.10B1306,2015-07-06 07:53:00,
2015-07-06 02:58:00,78.6,44.5,29.97,SE,146,0.0,2.0,30,0.00,,,0.00,WeatherCatV2.10B1306,2015-07-06 07:58:00,
2015-07-06 03:03:00,78.6,44.5,29.97,SSE,150,0.0,9.0,30,0.00,,,0.00,WeatherCatV2.10B1306,2015-07-06 08:03:00,
2015-07-06 03:08:00,78.5,44.5,29.97,SE,130,3.0,13.0,30,0.00,,,0.00,WeatherCatV2.10B1306,2015-07-06 08:08:00,
2015-07-06 03:13:00,78.5,44.5,29.97,SE,141,2.0,8.0,30,0.00,,,0.00,WeatherCatV2.10B1306,2015-07-06 08:13:00,
2015-07-06 03:18:00,78.5,44.5,29.97,East,94,0.0,0.0,30,0.00,,,0.00,WeatherCatV2.10B1306,2015-07-06 08:18:00,
2015-07-06 03:23:00,78.4,44.4,29.97,ESE,122,0.0,8.0,30,0.00,,,0.00,WeatherCatV2.10B1306,2015-07-06 08:23:00,
2015-07-06 03:28:00,78.4,44.4,29.97,ESE,114,0.0,9.0,30,0.00,,,0.00,WeatherCatV2.10B1306,2015-07-06 08:28:00,
2015-07-06 03:33:00,78.4,44.4,29.97,ESE,123,0.0,0.0,30,0.00,,,0.00,WeatherCatV2.10B1306,2015-07-06 08:33:00,
2015-07-06 03:38:00,78.3,44.3,29.97,ESE,111,0.0,8.0,30,0.00,,,0.00,WeatherCatV2.10B1306,2015-07-06 08:38:00,
2015-07-06 03:43:00,78.2,43.3,29.97,SE,144,0.0,12.0,29,0.00,,,0.00,WeatherCatV2.10B1306,2015-07-06 08:43:00,
2015-07-06 03:48:00,78.2,43.3,29.97,SE,128,0.0,8.0,29,0.00,,,0.00,WeatherCatV2.10B1306,2015-07-06 08:48:00,
2015-07-06 03:53:00,78.1,43.2,29.97,SE,129,0.0,1.0,29,0.00,,,0.00,WeatherCatV2.10B1306,2015-07-06 08:53:00,
2015-07-06 03:58:00,78.0,43.2,29.97,ESE,113,0.0,1.0,29,0.00,,,0.00,WeatherCatV2.10B1306,2015-07-06 08:58:00,
2015-07-06 04:03:00,77.9,43.1,29.97,SE,143,0.0,0.0,29,0.00,,,0.00,WeatherCatV2.10B1306,2015-07-06 09:03:00,
2015-07-06 04:08:00,77.8,43.0,29.97,ESE,117,0.0,3.0,29,0.00,,,0.00,WeatherCatV2.10B1306,2015-07-06 09:08:00,
2015-07-06 04:13:00,77.8,43.0,29.97,SSE,158,0.0,9.0,29,0.00,,,0.00,WeatherCatV2.10B1306,2015-07-06 09:13:00,
2015-07-06 04:18:00,77.8,43.0,29.97,East,98,2.0,2.0,29,0.00,,,0.00,WeatherCatV2.10B1306,2015-07-06 09:18:00,
2015-07-06 04:23:00,77.7,43.8,29.97,ESE,111,0.0,9.0,30,0.00,,,0.00,WeatherCatV2.10B1306,2015-07-06 09:23:00,
2015-07-06 04:28:00,77.7,43.8,29.97,SE,124,0.0,6.0,30,0.00,,,0.00,WeatherCatV2.10B1306,2015-07-06 09:28:00,
2015-07-06 04:33:00,77.7,43.8,29.97,SE,130,0.0,4.0,30,0.00,,,0.00,WeatherCatV2.10B1306,2015-07-06 09:33:00,
2015-07-06 04:38:00,77.6,42.8,29.97,SSE,153,0.0,7.0,29,0.00,,,0.00,WeatherCatV2.10B1306,2015-07-06 09:38:00,
2015-07-06 04:43:00,77.6,42.8,29.97,SE,135,0.0,5.0,29,0.00,,,0.00,WeatherCatV2.10B1306,2015-07-06 09:43:00,
2015-07-06 04:48:00,77.6,43.7,29.97,SE,137,0.0,0.0,30,0.00,,,0.00,WeatherCatV2.10B1306,2015-07-06 09:48:00,
2015-07-06 04:53:00,77.5,42.7,29.97,ESE,103,0.0,7.0,29,0.00,,,0.00,WeatherCatV2.10B1306,2015-07-06 09:53:00,
2015-07-06 04:58:00,77.5,42.7,29.97,SE,129,0.0,7.0,29,0.00,,,0.00,WeatherCatV2.10B1306,2015-07-06 09:58:00,
2015-07-06 05:03:00,77.4,43.5,29.97,SE,142,0.0,0.0,30,0.00,,,0.00,WeatherCatV2.10B1306,2015-07-06 10:03:00,
2015-07-06 05:08:00,77.4,42.6,29.97,SSE,150,0.0,4.0,29,0.00,,,0.00,WeatherCatV2.10B1306,2015-07-06 10:08:00,
2015-07-06 05:13:00,77.3,43.4,29.97,East,79,0.0,0.0,30,0.00,,,0.00,WeatherCatV2.10B1306,2015-07-06 10:13:00,
2015-07-06 05:18:00,77.2,43.3,29.97,SSE,155,0.0,8.0,30,0.00,,,0.00,WeatherCatV2.10B1306,2015-07-06 10:18:00,
2015-07-06 05:23:00,77.2,43.3,29.97,ESE,115,0.0,8.0,30,0.00,,,0.00,WeatherCatV2.10B1306,2015-07-06 10:23:00,
2015-07-06 05:28:00,77.2,43.3,29.97,SE,141,0.0,0.0,30,0.00,,,0.00,WeatherCatV2.10B1306,2015-07-06 10:28:00,
2015-07-06 05:33:00,77.1,42.4,29.96,ESE,117,0.0,0.0,29,0.00,,,0.00,WeatherCatV2.10B1306,2015-07-06 10:33:00,
2015-07-06 05:38:00,77.0,42.3,29.97,ESE,111,0.0,1.0,29,0.00,,,0.00,WeatherCatV2.10B1306,2015-07-06 10:38:00,
2015-07-06 05:43:00,76.9,42.2,29.97,SE,138,0.0,8.0,29,0.00,,,0.00,WeatherCatV2.10B1306,2015-07-06 10:43:00,
2015-07-06 05:48:00,76.9,42.2,29.97,SE,139,0.0,5.0,29,0.00,,,0.00,WeatherCatV2.10B1306,2015-07-06 10:48:00,
2015-07-06 05:53:00,76.9,42.2,29.97,SE,130,0.0,0.0,29,0.00,,,0.00,WeatherCatV2.10B1306,2015-07-06 10:53:00,
2015-07-06 05:58:00,76.8,42.1,29.97,SE,136,0.0,0.0,29,0.00,,,0.00,WeatherCatV2.10B1306,2015-07-06 10:58:00,
2015-07-06 06:03:00,76.8,42.1,29.98,SE,146,0.0,7.0,29,0.00,,,0.00,WeatherCatV2.10B1306,2015-07-06 11:03:00,
2015-07-06 06:08:00,76.7,42.0,29.98,SE,129,0.0,7.0,29,0.00,,,0.00,WeatherCatV2.10B1306,2015-07-06 11:08:00,
2015-07-06 06:13:00,76.7,42.0,29.98,East,96,0.0,2.0,29,0.00,,,0.00,WeatherCatV2.10B1306,2015-07-06 11:13:00,
2015-07-06 06:18:00,76.6,42.0,29.98,SE,142,2.0,8.0,29,0.00,,,0.00,WeatherCatV2.10B1306,2015-07-06 11:18:00,
2015-07-06 06:23:00,76.6,42.0,29.98,SE,128,0.0,0.0,29,0.00,,,0.00,WeatherCatV2.10B1306,2015-07-06 11:23:00,
2015-07-06 06:28:00,76.5,41.9,29.98,SSE,150,0.0,7.0,29,0.00,,,0.00,WeatherCatV2.10B1306,2015-07-06 11:28:00,
2015-07-06 06:33:00,76.5,41.9,29.98,SSE,149,0.0,1.0,29,0.00,,,0.00,WeatherCatV2.10B1306,2015-07-06 11:33:00,
2015-07-06 06:38:00,76.4,41.8,29.98,ESE,113,0.0,2.0,29,0.00,,,0.00,WeatherCatV2.10B1306,2015-07-06 11:38:00,
2015-07-06 06:43:00,76.4,41.8,29.99,ESE,114,0.0,0.0,29,0.00,,,0.00,WeatherCatV2.10B1306,2015-07-06 11:43:00,
2015-07-06 06:48:00,76.3,40.8,29.99,SSE,153,0.0,0.0,28,0.00,,,0.00,WeatherCatV2.10B1306,2015-07-06 11:48:00,
2015-07-06 06:53:00,76.3,40.8,29.99,SSE,154,0.0,2.0,28,0.00,,,0.00,WeatherCatV2.10B1306,2015-07-06 11:53:00,
2015-07-06 06:58:00,76.3,40.8,29.99,SSE,150,0.0,3.0,28,0.00,,,0.00,WeatherCatV2.10B1306,2015-07-06 11:58:00,
2015-07-06 07:03:00,76.4,40.9,29.99,SE,136,2.0,2.0,28,0.00,,,0.00,WeatherCatV2.10B1306,2015-07-06 12:03:00,
2015-07-06 07:08:00,76.4,40.9,29.99,ESE,113,0.0,2.0,28,0.00,,,0.00,WeatherCatV2.10B1306,2015-07-06 12:08:00,
2015-07-06 07:13:00,76.4,40.9,29.99,SE,142,0.0,4.0,28,0.00,,,0.00,WeatherCatV2.10B1306,2015-07-06 12:13:00,
2015-07-06 07:18:00,76.5,41.0,29.99,ESE,108,0.0,2.0,28,0.00,,,0.00,WeatherCatV2.10B1306,2015-07-06 12:18:00,
2015-07-06 07:23:00,76.5,41.0,29.99,ESE,111,0.0,5.0,28,0.00,,,0.00,WeatherCatV2.10B1306,2015-07-06 12:23:00,
2015-07-06 07:28:00,76.5,41.0,29.99,ESE,111,0.0,7.0,28,0.00,,,0.00,WeatherCatV2.10B1306,2015-07-06 12:28:00,
2015-07-06 07:33:00,76.5,41.0,30.00,SE,138,0.0,0.0,28,0.00,,,0.00,WeatherCatV2.10B1306,2015-07-06 12:33:00,
2015-07-06 07:38:00,76.6,41.0,30.00,SE,137,0.0,5.0,28,0.00,,,0.00,WeatherCatV2.10B1306,2015-07-06 12:38:00,
2015-07-06 07:43:00,76.7,41.1,30.00,SE,140,0.0,0.0,28,0.00,,,0.00,WeatherCatV2.10B1306,2015-07-06 12:43:00,
2015-07-06 07:48:00,76.8,41.2,30.00,East,101,0.0,3.0,28,0.00,,,0.00,WeatherCatV2.10B1306,2015-07-06 12:48:00,
2015-07-06 07:53:00,76.9,41.3,30.00,SE,136,3.0,5.0,28,0.00,,,0.00,WeatherCatV2.10B1306,2015-07-06 12:53:00,
2015-07-06 08:03:00,77.1,41.5,30.00,SSE,163,0.0,6.0,28,0.00,,,0.00,WeatherCatV2.10B1306,2015-07-06 13:03:00,
2015-07-06 08:08:00,77.3,42.5,30.00,SE,132,0.0,2.0,29,0.00,,,0.00,WeatherCatV2.10B1306,2015-07-06 13:08:00,
2015-07-06 08:13:00,77.4,42.6,30.00,SSE,157,3.0,4.0,29,0.00,,,0.00,WeatherCatV2.10B1306,2015-07-06 13:13:00,
2015-07-06 08:18:00,77.5,42.7,30.00,SE,136,9.0,9.0,29,0.00,,,0.00,WeatherCatV2.10B1306,2015-07-06 13:18:00,
2015-07-06 08:23:00,77.6,42.8,30.00,SE,130,1.0,3.0,29,0.00,,,0.00,WeatherCatV2.10B1306,2015-07-06 13:23:00,
2015-07-06 08:28:00,77.9,43.1,30.00,SE,138,0.0,3.0,29,0.00,,,0.00,WeatherCatV2.10B1306,2015-07-06 13:28:00,
2015-07-06 08:33:00,78.1,44.1,30.00,SSE,163,0.0,6.0,30,0.00,,,0.00,WeatherCatV2.10B1306,2015-07-06 13:33:00,
2015-07-06 08:38:00,78.3,45.2,30.01,SSE,165,0.0,5.0,31,0.00,,,0.00,WeatherCatV2.10B1306,2015-07-06 13:38:00,
2015-07-06 08:43:00,78.5,46.2,30.01,ESE,109,0.0,3.0,32,0.00,,,0.00,WeatherCatV2.10B1306,2015-07-06 13:43:00,
2015-07-06 08:48:00,78.7,47.2,30.01,SE,125,0.0,5.0,33,0.00,,,0.00,WeatherCatV2.10B1306,2015-07-06 13:48:00,
2015-07-06 08:53:00,78.7,48.0,30.01,SE,134,8.0,8.0,34,0.00,,,0.00,WeatherCatV2.10B1306,2015-07-06 13:53:00,
2015-07-06 08:58:00,79.0,49.0,30.01,ESE,113,0.0,7.0,35,0.00,,,0.00,WeatherCatV2.10B1306,2015-07-06 13:58:00,
2015-07-06 09:03:00,79.3,50.0,30.01,South,169,2.0,8.0,36,0.00,,,0.00,WeatherCatV2.10B1306,2015-07-06 14:03:00,
2015-07-06 09:08:00,79.6,51.0,30.01,SSE,161,0.0,12.0,37,0.00,,,0.00,WeatherCatV2.10B1306,2015-07-06 14:08:00,
2015-07-06 09:13:00,79.9,52.7,30.01,SE,139,0.0,9.0,39,0.00,,,0.00,WeatherCatV2.10B1306,2015-07-06 14:13:00,
2015-07-06 09:18:00,80.2,53.7,30.01,ESE,104,7.0,10.0,40,0.00,,,0.00,WeatherCatV2.10B1306,2015-07-06 14:18:00,
2015-07-06 09:23:00,80.1,54.9,30.02,ESE,113,0.0,8.0,42,0.00,,,0.00,WeatherCatV2.10B1306,2015-07-06 14:23:00,
2015-07-06 09:28:00,80.1,55.6,30.02,SE,130,7.0,9.0,43,0.00,,,0.00,WeatherCatV2.10B1306,2015-07-06 14:28:00,
2015-07-06 09:33:00,80.0,56.1,30.02,East,101,0.0,2.0,44,0.00,,,0.00,WeatherCatV2.10B1306,2015-07-06 14:33:00,
2015-07-06 09:38:00,80.1,56.2,30.02,ESE,121,0.0,7.0,44,0.00,,,0.00,WeatherCatV2.10B1306,2015-07-06 14:38:00,
2015-07-06 09:43:00,80.1,56.8,30.02,SSE,150,0.0,7.0,45,0.00,,,0.00,WeatherCatV2.10B1306,2015-07-06 14:43:00,
2015-07-06 09:48:00,80.6,57.3,30.02,South,170,0.0,9.0,45,0.00,,,0.00,WeatherCatV2.10B1306,2015-07-06 14:48:00,
2015-07-06 09:53:00,80.6,59.7,30.01,ESE,113,1.0,8.0,49,0.00,,,0.00,WeatherCatV2.10B1306,2015-07-06 14:53:00,
2015-07-06 09:58:00,80.7,59.2,30.02,South,184,6.0,8.0,48,0.00,,,0.00,WeatherCatV2.10B1306,2015-07-06 14:58:00,
2015-07-06 10:03:00,80.9,59.9,30.01,ESE,110,1.0,5.0,49,0.00,,,0.00,WeatherCatV2.10B1306,2015-07-06 15:03:00,
2015-07-06 10:08:00,81.3,61.4,30.02,SE,137,6.0,12.0,51,0.00,,,0.00,WeatherCatV2.10B1306,2015-07-06 15:08:00,
2015-07-06 10:13:00,81.4,62.6,30.02,ESE,110,1.0,7.0,53,0.00,,,0.00,WeatherCatV2.10B1306,2015-07-06 15:13:00,
2015-07-06 10:18:00,81.6,62.2,30.02,SSE,152,0.0,8.0,52,0.00,,,0.00,WeatherCatV2.10B1306,2015-07-06 15:18:00,
2015-07-06 10:23:00,82.1,62.7,30.01,SE,128,0.0,1.0,52,0.00,,,0.00,WeatherCatV2.10B1306,2015-07-06 15:23:00,
2015-07-06 10:28:00,82.8,64.4,30.01,SE,134,0.0,3.0,54,0.00,,,0.00,WeatherCatV2.10B1306,2015-07-06 15:28:00,
2015-07-06 10:33:00,83.3,66.4,30.02,ESE,105,0.0,7.0,57,0.00,,,0.00,WeatherCatV2.10B1306,2015-07-06 15:33:00,
2015-07-06 10:38:00,83.5,67.6,30.02,SE,125,0.0,8.0,59,0.00,,,0.00,WeatherCatV2.10B1306,2015-07-06 15:38:00,
2015-07-06 10:43:00,83.7,67.3,30.02,East,95,5.0,6.0,58,0.00,,,0.00,WeatherCatV2.10B1306,2015-07-06 15:43:00,
2015-07-06 10:53:00,83.5,67.1,30.02,SSE,152,0.0,4.0,58,0.00,,,0.00,WeatherCatV2.10B1306,2015-07-06 15:53:00,
2015-07-06 10:58:00,83.9,68.5,30.02,South,171,0.0,9.0,60,0.00,,,0.00,WeatherCatV2.10B1306,2015-07-06 15:58:00,
2015-07-06 11:03:00,84.6,69.2,30.02,SE,131,2.0,8.0,60,0.00,,,0.00,WeatherCatV2.10B1306,2015-07-06 16:03:00,
2015-07-06 11:08:00,84.4,70.4,30.02,SE,127,10.0,10.0,63,0.00,,,0.00,WeatherCatV2.10B1306,2015-07-06 16:08:00,
2015-07-06 11:13:00,84.0,69.6,30.02,SE,134,0.0,8.0,62,0.00,,,0.00,WeatherCatV2.10B1306,2015-07-06 16:13:00,
2015-07-06 11:18:00,84.1,70.1,30.02,SE,143,0.0,5.0,63,0.00,,,0.00,WeatherCatV2.10B1306,2015-07-06 16:18:00,
2015-07-06 11:23:00,84.3,70.8,30.02,ESE,120,1.0,8.0,64,0.00,,,0.00,WeatherCatV2.10B1306,2015-07-06 16:23:00,
2015-07-06 11:28:00,84.0,70.0,30.02,SE,130,0.0,2.0,63,0.00,,,0.00,WeatherCatV2.10B1306,2015-07-06 16:28:00,
2015-07-06 11:33:00,83.9,69.5,30.02,South,184,1.0,13.0,62,0.00,,,0.00,WeatherCatV2.10B1306,2015-07-06 16:33:00,
2015-07-06 11:38:00,84.2,70.2,30.02,SSE,156,0.0,9.0,63,0.00,,,0.00,WeatherCatV2.10B1306,2015-07-06 16:38:00,
2015-07-06 11:43:00,83.9,69.9,30.02,SE,142,0.0,3.0,63,0.00,,,0.00,WeatherCatV2.10B1306,2015-07-06 16:43:00,
2015-07-06 11:48:00,83.7,69.3,30.02,SE,145,0.0,2.0,62,0.00,,,0.00,WeatherCatV2.10B1306,2015-07-06 16:48:00,
2015-07-06 11:53:00,84.5,69.1,30.02,SE,141,0.0,2.0,60,0.00,,,0.00,WeatherCatV2.10B1306,2015-07-06 16:53:00,
2015-07-06 11:58:00,85.5,71.4,30.01,SSW,199,6.0,7.0,63,0.00,,,0.00,WeatherCatV2.10B1306,2015-07-06 16:58:00,
2015-07-06 12:03:00,86.2,73.0,30.01,ESE,105,0.0,9.0,65,0.00,,,0.00,WeatherCatV2.10B1306,2015-07-06 17:03:00,
2015-07-06 12:08:00,86.4,73.7,30.01,SW,233,0.0,3.0,66,0.00,,,0.00,WeatherCatV2.10B1306,2015-07-06 17:08:00,
2015-07-06 12:13:00,85.8,73.1,30.01,SE,138,0.0,5.0,66,0.00,,,0.00,WeatherCatV2.10B1306,2015-07-06 17:13:00,
2015-07-06 12:18:00,86.3,73.1,30.01,East,84,0.0,5.0,65,0.00,,,0.00,WeatherCatV2.10B1306,2015-07-06 17:18:00,
2015-07-06 12:23:00,86.7,73.9,30.01,East,101,0.0,8.0,66,0.00,,,0.00,WeatherCatV2.10B1306,2015-07-06 17:23:00,
2015-07-06 12:28:00,86.7,73.9,30.01,SE,124,1.0,10.0,66,0.00,,,0.00,WeatherCatV2.10B1306,2015-07-06 17:28:00,
2015-07-06 12:33:00,86.6,74.3,30.01,SE,140,0.0,7.0,67,0.00,,,0.00,WeatherCatV2.10B1306,2015-07-06 17:33:00,
2015-07-06 12:38:00,87.1,74.3,30.01,ENE,64,0.0,7.0,66,0.00,,,0.00,WeatherCatV2.10B1306,2015-07-06 17:38:00,
2015-07-06 12:43:00,87.9,75.1,30.01,ENE,76,4.0,11.0,66,0.00,,,0.00,WeatherCatV2.10B1306,2015-07-06 17:43:00,
2015-07-06 12:48:00,87.9,75.1,30.00,SE,133,1.0,8.0,66,0.00,,,0.00,WeatherCatV2.10B1306,2015-07-06 17:48:00,
2015-07-06 12:49:00,87.9,75.1,30.00,South,182,5.0,5.0,66,0.00,,,0.00,WeatherCatV2.10B1306,2015-07-06 17:49:00,
2015-07-06 12:53:00,87.8,75.0,30.00,South,178,5.0,8.0,66,0.00,,,0.00,WeatherCatV2.10B1306,2015-07-06 17:53:00,
2015-07-06 12:54:00,87.7,74.9,30.00,SSE,148,0.0,14.0,66,0.00,,,0.00,WeatherCatV2.10B1306,2015-07-06 17:54:00,
2015-07-06 12:59:00,87.6,74.3,30.00,South,187,4.0,11.0,65,0.00,,,0.00,WeatherCatV2.10B1306,2015-07-06 17:59:00,
2015-07-06 13:04:00,87.7,74.9,30.00,SW,233,1.0,7.0,66,0.00,,,0.00,WeatherCatV2.10B1306,2015-07-06 18:04:00,
2015-07-06 13:09:00,87.6,74.3,30.00,ESE,115,2.0,3.0,65,0.00,,,0.00,WeatherCatV2.10B1306,2015-07-06 18:09:00,
2015-07-06 13:14:00,87.1,74.3,30.00,SE,126,2.0,7.0,66,0.00,,,0.00,WeatherCatV2.10B1306,2015-07-06 18:14:00,
2015-07-06 13:19:00,87.6,74.3,29.99,SE,146,0.0,11.0,65,0.00,,,0.00,WeatherCatV2.10B1306,2015-07-06 18:19:00,
2015-07-06 13:24:00,87.9,75.1,29.99,South,179,0.0,9.0,66,0.00,,,0.00,WeatherCatV2.10B1306,2015-07-06 18:24:00,
2015-07-06 13:29:00,88.7,75.8,29.99,ESE,106,5.0,11.0,66,0.00,,,0.00,WeatherCatV2.10B1306,2015-07-06 18:29:00,
2015-07-06 13:34:00,88.8,75.5,29.98,SSE,159,2.0,6.0,65,0.00,,,0.00,WeatherCatV2.10B1306,2015-07-06 18:34:00,
2015-07-06 13:39:00,88.8,75.5,29.98,SE,138,1.0,8.0,65,0.00,,,0.00,WeatherCatV2.10B1306,2015-07-06 18:39:00,
2015-07-06 13:44:00,89.1,75.8,29.98,SSE,148,0.0,8.0,65,0.00,,,0.00,WeatherCatV2.10B1306,2015-07-06 18:44:00,
2015-07-06 13:49:00,88.5,75.7,29.98,ESE,123,2.0,13.0,66,0.00,,,0.00,WeatherCatV2.10B1306,2015-07-06 18:49:00,
2015-07-06 13:54:00,88.7,75.4,29.98,SE,136,0.0,13.0,65,0.00,,,0.00,WeatherCatV2.10B1306,2015-07-06 18:54:00,
2015-07-06 13:59:00,88.4,75.1,29.98,SE,136,0.0,4.0,65,0.00,,,0.00,WeatherCatV2.10B1306,2015-07-06 18:59:00,
2015-07-06 14:04:00,87.7,74.9,29.98,ESE,117,0.0,7.0,66,0.00,,,0.00,WeatherCatV2.10B1306,2015-07-06 19:04:00,
2015-07-06 14:09:00,88.1,75.3,29.97,SE,141,4.0,9.0,66,0.00,,,0.00,WeatherCatV2.10B1306,2015-07-06 19:09:00,
2015-07-06 14:14:00,88.6,75.8,29.97,SE,136,0.0,6.0,66,0.00,,,0.00,WeatherCatV2.10B1306,2015-07-06 19:14:00,
2015-07-06 14:19:00,88.9,75.6,29.97,SE,131,1.0,8.0,65,0.00,,,0.00,WeatherCatV2.10B1306,2015-07-06 19:19:00,
2015-07-06 14:24:00,88.3,75.5,29.97,SE,125,4.0,8.0,66,0.00,,,0.00,WeatherCatV2.10B1306,2015-07-06 19:24:00,
2015-07-06 14:29:00,88.6,75.8,29.97,East,83,7.0,10.0,66,0.00,,,0.00,WeatherCatV2.10B1306,2015-07-06 19:29:00,
2015-07-06 14:34:00,88.3,74.5,29.96,East,93,8.0,8.0,64,0.00,,,0.00,WeatherCatV2.10B1306,2015-07-06 19:34:00,
2015-07-06 14:39:00,88.8,75.5,29.96,SE,144,3.0,10.0,65,0.00,,,0.00,WeatherCatV2.10B1306,2015-07-06 19:39:00,
2015-07-06 14:44:00,89.3,75.9,29.96,SE,130,3.0,9.0,65,0.00,,,0.00,WeatherCatV2.10B1306,2015-07-06 19:44:00,
2015-07-06 14:49:00,89.2,75.4,29.96,East,91,1.0,11.0,64,0.00,,,0.00,WeatherCatV2.10B1306,2015-07-06 19:49:00,
2015-07-06 14:54:00,89.2,75.4,29.96,SE,128,0.0,8.0,64,0.00,,,0.00,WeatherCatV2.10B1306,2015-07-06 19:54:00,
2015-07-06 14:59:00,88.9,75.1,29.95,SE,137,4.0,14.0,64,0.00,,,0.00,WeatherCatV2.10B1306,2015-07-06 19:59:00,
2015-07-06 15:04:00,88.6,74.8,29.95,East,84,3.0,8.0,64,0.00,,,0.00,WeatherCatV2.10B1306,2015-07-06 20:04:00,
2015-07-06 15:09:00,88.9,75.1,29.95,ESE,119,2.0,9.0,64,0.00,,,0.00,WeatherCatV2.10B1306,2015-07-06 20:09:00,
2015-07-06 15:14:00,89.3,75.9,29.95,SE,135,4.0,12.0,65,0.00,,,0.00,WeatherCatV2.10B1306,2015-07-06 20:14:00,
2015-07-06 15:19:00,89.3,75.5,29.94,East,96,2.0,12.0,64,0.00,,,0.00,WeatherCatV2.10B1306,2015-07-06 20:19:00,
2015-07-06 15:24:00,89.2,74.9,29.95,SE,130,0.0,10.0,63,0.00,,,0.00,WeatherCatV2.10B1306,2015-07-06 20:24:00,
2015-07-06 15:29:00,88.5,73.8,29.94,ESE,111,4.0,10.0,62,0.00,,,0.00,WeatherCatV2.10B1306,2015-07-06 20:29:00,
2015-07-06 15:34:00,88.9,75.1,29.94,SE,124,2.0,10.0,64,0.00,,,0.00,WeatherCatV2.10B1306,2015-07-06 20:34:00,
2015-07-06 15:39:00,89.6,75.8,29.94,SE,128,7.0,8.0,64,0.00,,,0.00,WeatherCatV2.10B1306,2015-07-06 20:39:00,
2015-07-06 15:44:00,89.9,75.6,29.94,SSE,157,1.0,4.0,63,0.00,,,0.00,WeatherCatV2.10B1306,2015-07-06 20:44:00,
2015-07-06 15:49:00,90.0,75.7,29.94,ESE,123,0.0,7.0,63,0.00,,,0.00,WeatherCatV2.10B1306,2015-07-06 20:49:00,
2015-07-06 15:59:00,89.8,76.0,29.94,East,94,5.0,5.0,64,0.00,,,0.00,WeatherCatV2.10B1306,2015-07-06 20:59:00,
2015-07-06 16:04:00,89.9,76.1,29.94,SSE,168,1.0,10.0,64,0.00,,,0.00,WeatherCatV2.10B1306,2015-07-06 21:04:00,
2015-07-06 16:09:00,90.1,75.8,29.94,SSE,163,0.0,10.0,63,0.00,,,0.00,WeatherCatV2.10B1306,2015-07-06 21:09:00,
2015-07-06 16:14:00,90.3,75.9,29.93,ESE,121,7.0,11.0,63,0.00,,,0.00,WeatherCatV2.10B1306,2015-07-06 21:14:00,
2015-07-06 16:19:00,89.7,75.9,29.93,ESE,111,2.0,5.0,64,0.00,,,0.00,WeatherCatV2.10B1306,2015-07-06 21:19:00,
2015-07-06 16:24:00,89.4,75.6,29.93,East,82,1.0,11.0,64,0.00,,,0.00,WeatherCatV2.10B1306,2015-07-06 21:24:00,
2015-07-06 16:29:00,89.3,75.5,29.93,ESE,109,4.0,10.0,64,0.00,,,0.00,WeatherCatV2.10B1306,2015-07-06 21:29:00,
2015-07-06 16:34:00,89.0,75.7,29.93,ESE,123,1.0,9.0,65,0.00,,,0.00,WeatherCatV2.10B1306,2015-07-06 21:34:00,
2015-07-06 16:39:00,89.2,75.4,29.93,SSE,163,0.0,8.0,64,0.00,,,0.00,WeatherCatV2.10B1306,2015-07-06 21:39:00,
2015-07-06 16:44:00,89.5,75.7,29.93,East,98,0.0,8.0,64,0.00,,,0.00,WeatherCatV2.10B1306,2015-07-06 21:44:00,
2015-07-06 16:49:00,89.4,75.6,29.93,ESE,117,0.0,8.0,64,0.00,,,0.00,WeatherCatV2.10B1306,2015-07-06 21:49:00,
2015-07-06 16:54:00,89.1,75.3,29.92,ESE,114,2.0,4.0,64,0.00,,,0.00,WeatherCatV2.10B1306,2015-07-06 21:54:00,
2015-07-06 16:59:00,89.1,75.3,29.92,SE,146,5.0,9.0,64,0.00,,,0.00,WeatherCatV2.10B1306,2015-07-06 21:59:00,
2015-07-06 17:04:00,89.4,75.6,29.92,SE,139,0.0,4.0,64,0.00,,,0.00,WeatherCatV2.10B1306,2015-07-06 22:04:00,
2015-07-06 17:09:00,89.7,75.9,29.92,East,82,0.0,9.0,64,0.00,,,0.00,WeatherCatV2.10B1306,2015-07-06 22:09:00,
2015-07-06 17:14:00,89.4,75.6,29.92,SE,126,3.0,11.0,64,0.00,,,0.00,WeatherCatV2.10B1306,2015-07-06 22:14:00,
2015-07-06 17:19:00,89.1,75.3,29.91,South,175,5.0,5.0,64,0.00,,,0.00,WeatherCatV2.10B1306,2015-07-06 22:19:00,
2015-07-06 17:24:00,89.1,75.8,29.91,ENE,78,5.0,5.0,65,0.00,,,0.00,WeatherCatV2.10B1306,2015-07-06 22:24:00,
2015-07-06 17:29:00,89.3,75.9,29.91,East,84,11.0,11.0,65,0.00,,,0.00,WeatherCatV2.10B1306,2015-07-06 22:29:00,
2015-07-06 17:34:00,88.9,75.6,29.91,SE,132,3.0,8.0,65,0.00,,,0.00,WeatherCatV2.10B1306,2015-07-06 22:34:00,
2015-07-06 17:39:00,88.6,75.3,29.91,SE,137,4.0,8.0,65,0.00,,,0.00,WeatherCatV2.10B1306,2015-07-06 22:39:00,
2015-07-06 17:44:00,88.3,75.5,29.91,ESE,105,7.0,8.0,66,0.00,,,0.00,WeatherCatV2.10B1306,2015-07-06 22:44:00,
2015-07-06 17:49:00,88.1,74.8,29.91,SE,133,8.0,13.0,65,0.00,,,0.00,WeatherCatV2.10B1306,2015-07-06 22:49:00,
2015-07-06 17:55:00,88.1,75.3,29.91,SE,140,0.0,6.0,66,0.00,,,0.00,WeatherCatV2.10B1306,2015-07-06 22:55:00,
2015-07-06 18:00:00,88.3,75.5,29.91,SSE,164,4.0,13.0,66,0.00,,,0.00,WeatherCatV2.10B1306,2015-07-06 23:00:00,
2015-07-06 18:05:00,87.9,75.1,29.91,ESE,109,0.0,11.0,66,0.00,,,0.00,WeatherCatV2.10B1306,2015-07-06 23:05:00,
2015-07-06 18:10:00,87.4,75.1,29.91,ESE,106,1.0,7.0,67,0.00,,,0.00,WeatherCatV2.10B1306,2015-07-06 23:10:00,
2015-07-06 18:15:00,86.8,74.5,29.91,SE,128,0.0,4.0,67,0.00,,,0.00,WeatherCatV2.10B1306,2015-07-06 23:15:00,
2015-07-06 18:20:00,86.5,74.2,29.91,SE,136,0.0,7.0,67,0.00,,,0.00,WeatherCatV2.10B1306,2015-07-06 23:20:00,
2015-07-06 18:25:00,86.6,74.3,29.91,SE,131,1.0,4.0,67,0.00,,,0.00,WeatherCatV2.10B1306,2015-07-06 23:25:00,
2015-07-06 18:30:00,86.4,74.1,29.90,ESE,103,0.0,5.0,67,0.00,,,0.00,WeatherCatV2.10B1306,2015-07-06 23:30:00,
2015-07-06 18:40:00,86.4,74.1,29.90,ESE,105,0.0,4.0,67,0.00,,,0.00,WeatherCatV2.10B1306,2015-07-06 23:40:00,
2015-07-06 18:45:00,86.1,73.8,29.90,East,87,1.0,5.0,67,0.00,,,0.00,WeatherCatV2.10B1306,2015-07-06 23:45:00,
2015-07-06 18:50:00,86.0,73.3,29.90,ESE,123,0.0,9.0,66,0.00,,,0.00,WeatherCatV2.10B1306,2015-07-06 23:50:00,
2015-07-06 18:55:00,85.6,72.9,29.90,ESE,119,0.0,1.0,66,0.00,,,0.00,WeatherCatV2.10B1306,2015-07-06 23:55:00,
2015-07-06 19:00:00,85.4,72.7,29.90,ESE,114,0.0,7.0,66,0.00,,,0.00,WeatherCatV2.10B1306,2015-07-07 00:00:00,
2015-07-06 19:05:00,85.6,72.9,29.90,ESE,113,0.0,2.0,66,0.00,,,0.00,WeatherCatV2.10B1306,2015-07-07 00:05:00,
2015-07-06 19:10:00,85.9,73.2,29.90,ESE,119,3.0,5.0,66,0.00,,,0.00,WeatherCatV2.10B1306,2015-07-07 00:10:00,
2015-07-06 19:15:00,85.9,73.2,29.90,SE,142,0.0,7.0,66,0.00,,,0.00,WeatherCatV2.10B1306,2015-07-07 00:15:00,
2015-07-06 19:20:00,85.7,72.6,29.90,ESE,119,3.0,3.0,65,0.00,,,0.00,WeatherCatV2.10B1306,2015-07-07 00:20:00,
2015-07-06 19:25:00,85.4,72.3,29.89,SSE,159,0.0,7.0,65,0.00,,,0.00,WeatherCatV2.10B1306,2015-07-07 00:25:00,
2015-07-06 19:30:00,85.1,71.5,29.89,ESE,117,0.0,2.0,64,0.00,,,0.00,WeatherCatV2.10B1306,2015-07-07 00:30:00,
2015-07-06 19:35:00,84.7,71.1,29.89,East,94,1.0,10.0,64,0.00,,,0.00,WeatherCatV2.10B1306,2015-07-07 00:35:00,
2015-07-06 19:40:00,84.3,70.8,29.89,SE,142,0.0,7.0,64,0.00,,,0.00,WeatherCatV2.10B1306,2015-07-07 00:40:00,
2015-07-06 19:45:00,84.1,70.1,29.89,East,98,6.0,6.0,63,0.00,,,0.00,WeatherCatV2.10B1306,2015-07-07 00:45:00,
2015-07-06 19:50:00,83.9,70.4,29.89,SSE,166,0.0,9.0,64,0.00,,,0.00,WeatherCatV2.10B1306,2015-07-07 00:50:00,
2015-07-06 19:55:00,83.8,70.3,29.89,ESE,103,0.0,3.0,64,0.00,,,0.00,WeatherCatV2.10B1306,2015-07-07 00:55:00,
2015-07-06 20:00:00,83.6,70.1,29.89,SE,130,0.0,1.0,64,0.00,,,0.00,WeatherCatV2.10B1306,2015-07-07 01:00:00,
2015-07-06 20:05:00,83.3,69.8,29.89,SE,134,0.0,1.0,64,0.00,,,0.00,WeatherCatV2.10B1306,2015-07-07 01:05:00,
2015-07-06 20:10:00,83.0,69.1,29.89,SSE,168,1.0,10.0,63,0.00,,,0.00,WeatherCatV2.10B1306,2015-07-07 01:10:00,
2015-07-06 20:15:00,82.9,69.0,29.89,SE,137,0.0,5.0,63,0.00,,,0.00,WeatherCatV2.10B1306,2015-07-07 01:15:00,
2015-07-06 20:20:00,82.7,68.3,29.89,SE,142,0.0,0.0,62,0.00,,,0.00,WeatherCatV2.10B1306,2015-07-07 01:20:00,
2015-07-06 20:25:00,82.5,68.1,29.89,SE,124,0.0,8.0,62,0.00,,,0.00,WeatherCatV2.10B1306,2015-07-07 01:25:00,
2015-07-06 20:30:00,82.3,67.5,29.89,SE,124,2.0,3.0,61,0.00,,,0.00,WeatherCatV2.10B1306,2015-07-07 01:30:00,
2015-07-06 20:35:00,82.1,67.3,29.89,SE,132,0.0,3.0,61,0.00,,,0.00,WeatherCatV2.10B1306,2015-07-07 01:35:00,
2015-07-06 20:40:00,82.1,66.8,29.89,SE,128,5.0,8.0,60,0.00,,,0.00,WeatherCatV2.10B1306,2015-07-07 01:40:00,
2015-07-06 20:45:00,82.0,66.2,29.89,East,94,3.0,3.0,59,0.00,,,0.00,WeatherCatV2.10B1306,2015-07-07 01:45:00,
2015-07-06 20:50:00,81.9,66.1,29.89,East,86,0.0,5.0,59,0.00,,,0.00,WeatherCatV2.10B1306,2015-07-07 01:50:00,
2015-07-06 20:55:00,81.7,65.5,29.89,SSE,155,0.0,3.0,58,0.00,,,0.00,WeatherCatV2.10B1306,2015-07-07 01:55:00,
2015-07-06 21:00:00,81.6,64.9,29.89,East,101,0.0,6.0,57,0.00,,,0.00,WeatherCatV2.10B1306,2015-07-07 02:00:00,
2015-07-06 21:05:00,81.4,64.7,29.90,East,90,0.0,7.0,57,0.00,,,0.00,WeatherCatV2.10B1306,2015-07-07 02:05:00,
2015-07-06 21:10:00,81.4,64.2,29.90,ESE,122,0.0,2.0,56,0.00,,,0.00,WeatherCatV2.10B1306,2015-07-07 02:10:00,
2015-07-06 21:15:00,81.2,63.5,29.90,ESE,115,0.0,1.0,55,0.00,,,0.00,WeatherCatV2.10B1306,2015-07-07 02:15:00,
2015-07-06 21:20:00,81.1,62.8,29.90,SSE,149,0.0,8.0,54,0.00,,,0.00,WeatherCatV2.10B1306,2015-07-07 02:20:00,
2015-07-06 21:25:00,80.9,62.7,29.90,ESE,113,0.0,5.0,54,0.00,,,0.00,WeatherCatV2.10B1306,2015-07-07 02:25:00,
2015-07-06 21:30:00,80.8,62.0,29.90,SE,132,0.0,0.0,53,0.00,,,0.00,WeatherCatV2.10B1306,2015-07-07 02:30:00,
2015-07-06 21:35:00,80.7,62.0,29.90,SSE,150,0.0,4.0,53,0.00,,,0.00,WeatherCatV2.10B1306,2015-07-07 02:35:00,
2015-07-06 21:40:00,80.6,61.3,29.90,ESE,113,0.0,0.0,52,0.00,,,0.00,WeatherCatV2.10B1306,2015-07-07 02:40:00,
2015-07-06 21:45:00,80.4,61.1,29.90,ESE,110,0.0,0.0,52,0.00,,,0.00,WeatherCatV2.10B1306,2015-07-07 02:45:00,